Location: Rounton
(54.4000°N, 1.3500°W)
Time: 14:43:45
(UTC+01:00)

S-56A Canister/Altair - Pass Details

Date: 08 September 2024
Orbit: 636 x 2487 km, 38.9° (Epoch: 02 October)

Event Time Altitude Azimuth Distance (km) Brightness Sun altitude
Rises 02:58:33 0° 268° (W) 5,049 - -25.4°
Reaches altitude 10° 03:02:19 10° 256° (WSW) 4,322 - -25.1°
Maximum altitude 03:11:31 26° 207° (SSW) 3,677 - -24.3°
Exits shadow 03:16:36 21° 180° (S) 4,147 10.8 -23.9°
Drops below altitude 10° 03:22:20 10° 160° (SSE) 5,120 11.4 -23.4°
Sets 03:27:23 0° 149° (SSE) 6,151 11.9 -22.9°
